![]() |
EMODnet Physics ERDDAP
Easier access to scientific data |
log in|
Brought to you by EMODnet Physics |
| Dataset Title: | NDBC - Collection of dew point temperature (DEWT) TimeSeries - IN SITU MultiPointTimeSeriesObservation
|
| Institution: | NDBC (Dataset ID: TS_DEWT_NDBC) |
| Information: | Summary
| License
| FGDC
| ISO 19115
| Metadata
| Background
| Subset
| Data Access Form
| Make a graph
|
| Name | Last modified | Size | Description | |
|---|---|---|---|---|
| Parent Directory | - | - | ||
| PRIM4_TS_DEWT_012011.nc | 27-Oct-2024 19:03 | 915182 | ||
| PRIM4_TS_DEWT_012012.nc | 27-Oct-2024 19:03 | 1143312 | ||
| PRIM4_TS_DEWT_012013.nc | 27-Oct-2024 19:03 | 1142926 | ||
| PRIM4_TS_DEWT_012014.nc | 27-Oct-2024 19:03 | 902173 | ||
| PRIM4_TS_DEWT_012015.nc | 27-Oct-2024 19:03 | 1143232 | ||
| PRIM4_TS_DEWT_012024.nc | 27-Oct-2024 19:04 | 916429 | ||
| PRIM4_TS_DEWT_022011.nc | 27-Oct-2024 19:04 | 992572 | ||
| PRIM4_TS_DEWT_022012.nc | 27-Oct-2024 19:04 | 429803 | ||
| PRIM4_TS_DEWT_022013.nc | 27-Oct-2024 19:04 | 434012 | ||
| PRIM4_TS_DEWT_022014.nc | 27-Oct-2024 19:04 | 994616 | ||
| PRIM4_TS_DEWT_022015.nc | 27-Oct-2024 19:04 | 917547 | ||
| PRIM4_TS_DEWT_022024.nc | 16-Sep-2024 16:51 | 1143269 | ||
| PRIM4_TS_DEWT_032010.nc | 27-Oct-2024 19:04 | 1143286 | ||
| PRIM4_TS_DEWT_032011.nc | 27-Oct-2024 19:04 | 917025 | ||
| PRIM4_TS_DEWT_032012.nc | 27-Oct-2024 19:04 | 428881 | ||
| PRIM4_TS_DEWT_032013.nc | 27-Oct-2024 19:04 | 434675 | ||
| PRIM4_TS_DEWT_032014.nc | 27-Oct-2024 19:04 | 913824 | ||
| PRIM4_TS_DEWT_032015.nc | 27-Oct-2024 19:04 | 908660 | ||
| PRIM4_TS_DEWT_032023.nc | 27-Oct-2024 19:04 | 916949 | ||
| PRIM4_TS_DEWT_042010.nc | 27-Oct-2024 19:04 | 917251 | ||
| PRIM4_TS_DEWT_042011.nc | 27-Oct-2024 19:04 | 1142812 | ||
| PRIM4_TS_DEWT_042012.nc | 27-Oct-2024 19:04 | 429914 | ||
| PRIM4_TS_DEWT_042013.nc | 27-Oct-2024 19:04 | 436330 | ||
| PRIM4_TS_DEWT_042014.nc | 27-Oct-2024 19:04 | 994750 | ||
| PRIM4_TS_DEWT_042015.nc | 27-Oct-2024 19:05 | 900941 | ||
| PRIM4_TS_DEWT_042023.nc | 27-Oct-2024 19:05 | 1143115 | ||
| PRIM4_TS_DEWT_052011.nc | 27-Oct-2024 19:05 | 991561 | ||
| PRIM4_TS_DEWT_052012.nc | 27-Oct-2024 19:05 | 916610 | ||
| PRIM4_TS_DEWT_052013.nc | 27-Oct-2024 19:05 | 601669 | ||
| PRIM4_TS_DEWT_052014.nc | 27-Oct-2024 19:05 | 902701 | ||
| PRIM4_TS_DEWT_052015.nc | 27-Oct-2024 19:05 | 992104 | ||
| PRIM4_TS_DEWT_052023.nc | 27-Oct-2024 19:05 | 994708 | ||
| PRIM4_TS_DEWT_062010.nc | 27-Oct-2024 19:05 | 992879 | ||
| PRIM4_TS_DEWT_062011.nc | 27-Oct-2024 19:05 | 1142734 | ||
| PRIM4_TS_DEWT_062012.nc | 27-Oct-2024 19:05 | 1143292 | ||
| PRIM4_TS_DEWT_062013.nc | 27-Oct-2024 19:05 | 1143247 | ||
| PRIM4_TS_DEWT_062014.nc | 27-Oct-2024 19:05 | 910532 | ||
| PRIM4_TS_DEWT_062015.nc | 27-Oct-2024 19:06 | 993984 | ||
| PRIM4_TS_DEWT_062023.nc | 27-Oct-2024 19:06 | 1143353 | ||
| PRIM4_TS_DEWT_072010.nc | 27-Oct-2024 19:06 | 993266 | ||
| PRIM4_TS_DEWT_072011.nc | 27-Oct-2024 19:06 | 993231 | ||
| PRIM4_TS_DEWT_072012.nc | 27-Oct-2024 19:06 | 994777 | ||
| PRIM4_TS_DEWT_072013.nc | 27-Oct-2024 19:06 | 994578 | ||
| PRIM4_TS_DEWT_072014.nc | 27-Oct-2024 19:06 | 992272 | ||
| PRIM4_TS_DEWT_072015.nc | 27-Oct-2024 19:06 | 912363 | ||
| PRIM4_TS_DEWT_072023.nc | 27-Oct-2024 19:06 | 994708 | ||
| PRIM4_TS_DEWT_082010.nc | 27-Oct-2024 19:06 | 992701 | ||
| PRIM4_TS_DEWT_082011.nc | 27-Oct-2024 19:06 | 1143120 | ||
| PRIM4_TS_DEWT_082012.nc | 27-Oct-2024 19:06 | 1143254 | ||
| PRIM4_TS_DEWT_082013.nc | 27-Oct-2024 19:06 | 1142655 | ||
| PRIM4_TS_DEWT_082014.nc | 27-Oct-2024 19:06 | 992125 | ||
| PRIM4_TS_DEWT_082023.nc | 27-Oct-2024 19:06 | 992457 | ||
| PRIM4_TS_DEWT_092010.nc | 27-Oct-2024 19:07 | 1143279 | ||
| PRIM4_TS_DEWT_092011.nc | 27-Oct-2024 19:07 | 992895 | ||
| PRIM4_TS_DEWT_092012.nc | 27-Oct-2024 19:07 | 994152 | ||
| PRIM4_TS_DEWT_092013.nc | 27-Oct-2024 19:07 | 436671 | ||
| PRIM4_TS_DEWT_092014.nc | 27-Oct-2024 19:07 | 1143276 | ||
| PRIM4_TS_DEWT_092023.nc | 27-Oct-2024 19:07 | 994313 | ||
| PRIM4_TS_DEWT_102010.nc | 27-Oct-2024 19:07 | 993819 | ||
| PRIM4_TS_DEWT_102011.nc | 27-Oct-2024 19:07 | 1143288 | ||
| PRIM4_TS_DEWT_102012.nc | 27-Oct-2024 19:07 | 1143229 | ||
| PRIM4_TS_DEWT_102013.nc | 27-Oct-2024 19:07 | 994465 | ||
| PRIM4_TS_DEWT_102014.nc | 27-Oct-2024 19:07 | 428877 | ||
| PRIM4_TS_DEWT_102015.nc | 27-Oct-2024 19:07 | 994833 | ||
| PRIM4_TS_DEWT_102023.nc | 27-Oct-2024 19:07 | 992263 | ||
| PRIM4_TS_DEWT_112010.nc | 27-Oct-2024 19:07 | 439060 | ||
| PRIM4_TS_DEWT_112011.nc | 27-Oct-2024 19:07 | 994845 | ||
| PRIM4_TS_DEWT_112012.nc | 27-Oct-2024 19:07 | 440131 | ||
| PRIM4_TS_DEWT_112013.nc | 27-Oct-2024 19:08 | 594640 | ||
| PRIM4_TS_DEWT_112014.nc | 27-Oct-2024 19:08 | 912459 | ||
| PRIM4_TS_DEWT_112023.nc | 27-Oct-2024 19:08 | 993848 | ||
| PRIM4_TS_DEWT_122010.nc | 27-Oct-2024 19:08 | 1143281 | ||
| PRIM4_TS_DEWT_122011.nc | 27-Oct-2024 19:08 | 994139 | ||
| PRIM4_TS_DEWT_122012.nc | 27-Oct-2024 19:08 | 1141871 | ||
| PRIM4_TS_DEWT_122013.nc | 27-Oct-2024 19:08 | 1141809 | ||
| PRIM4_TS_DEWT_122014.nc | 27-Oct-2024 19:08 | 917900 | ||
| PRIM4_TS_DEWT_122023.nc | 27-Oct-2024 19:08 | 911200 | ||